Location: Seven Kings
(51.5667°N, 0.1000°E)
Time: 05:00:05
(UTC+00:00)

NOSS 3-4 (C) - Pass Details

Date: 29 October 2020
Orbit: 886 x 1326 km, 63.4° (Epoch: 06 November)

Event Time Altitude Azimuth Distance (km) Brightness Sun altitude
Rises 19:41:52 0° 314° (NW) 3,800 7.5 -29.0°
Reaches altitude 10° 19:44:25 10° 311° (NW) 2,904 6.7 -29.4°
Maximum altitude 19:51:12 59° 234° (SW) 1,319 4.2 -30.4°
Enters shadow 19:53:11 45° 184° (S) 1,548 4.3 -30.7°
